Location: Unspecified
(0.0000°N, 0.0000°E)
Time: 02:23:34
(UTC+00:00)

Envisat - Pass Details

Date: 26 October 2020
Orbit: 764 x 766 km, 98.1° (Epoch: 25 October)

Event Time Altitude Azimuth Distance (km) Brightness Sun altitude
Rises 04:30:34 0° 47° (NE) 3,217 6.7 -17.9°
Reaches altitude 10° 04:34:02 10° 73° (ENE) 2,295 6.4 -17.0°
Maximum altitude 04:36:33 14° 103° (ESE) 2,041 6.4 -16.4°
Drops below altitude 10° 04:39:03 10° 133° (SE) 2,300 6.4 -15.8°
Sets 04:42:31 0° 158° (SSE) 3,230 6.8 -15.0°
